Home > Weather > Québec > Past weeks

Flag for Canada Weather for the Past 2 Weeks in Québec, Quebec, Canada

Now
12 °F

Passing clouds.


Feels Like: 2 °F
Forecast: N/A
Wind: 7 mph from North

Location: Quebec Weather Station

Current Time: Feb 7, 2016 at 6:56:20 PM

Latest Report: Feb 7, 2016 at 6:00 PM


Visibility: 20 mi

Pressure: 30.31 "Hg

Humidity: 44%

Dew point: -6 °F

Location of QuébecLocation

Historic Weather in Québec — Graph

°F

Québec Temperature Yesterday

Maximum temperature yesterday: 30 °F (at 11:00 PM)
Minimum temperature yesterday: 7 °F (at 2:00 AM)
Average temperature yesterday: 18 °F

High & Low Weather Summary for the Past Weeks

 TemperatureHumidityPressure
High41 °F (Feb 1, 10:00 AM)100% (Jan 26, 5:00 PM)30.46 "Hg (Jan 26, 5:00 PM)
Low5 °F (Jan 23, 11:00 PM)34% (Feb 7, 12:00 PM)29.31 "Hg (Feb 1, 10:00 AM)
Average22 °F79%29.93 "Hg
* Reported Jan 23 5:00 PM — Feb 7 5:00 PM, Québec, Weather by CustomWeather, © 2016

Note: Actual official high and low records may vary slightly from our data, if they occured in-between our weather recording intervals... More about our weather records

Advertising

Québec Weather History for the Previous 24 Hours

 ConditionsComfort  
Time TempWeatherWind HumidityBarometerVisibility
5:00 PM
Sun, Feb 7
14 °FPassing clouds.3 mph41%30.31 "Hg30 mi
4:00 PM16 °FPassing clouds.6 mph37%30.29 "Hg30 mi
3:00 PM16 °FPassing clouds.7 mph37%30.28 "Hg30 mi
2:00 PM16 °FPassing clouds.10 mph41%30.23 "Hg30 mi
1:00 PM14 °FPassing clouds.5 mph34%30.22 "Hg30 mi
12:00 PM12 °FPassing clouds.No wind34%30.23 "Hg30 mi
11:00 AM12 °FPassing clouds.5 mph37%30.24 "Hg30 mi
10:00 AM10 °FPassing clouds.8 mph40%30.23 "Hg30 mi
9:00 AM9 °FPassing clouds.10 mph39%30.23 "Hg30 mi
8:00 AM10 °FPassing clouds.14 mph40%30.19 "Hg30 mi
7:00 AM16 °FPassing clouds.14 mph53%30.13 "Hg30 mi
6:00 AM18 °FPassing clouds.16 mph58%30.07 "Hg15 mi
5:00 AM21 °FPassing clouds.23 mph54%30.02 "Hg15 mi
4:00 AM23 °FLight mixture of precip. Mostly cloudy.18 mph58%29.97 "Hg15 mi
3:00 AM25 °FSnow flurries. Mostly cloudy.16 mph74%29.94 "Hg8 mi
2:00 AM32 °FSnow flurries. Partly cloudy.29 mph75%29.89 "Hg15 mi
1:00 AM30 °FSnow flurries. Passing clouds.23 mph80%29.90 "Hg10 mi
12:00 AM32 °FSnow flurries. Mostly cloudy.21 mph75%29.92 "Hg8 mi
11:00 PM
Sat, Feb 6
30 °FSnow flurries. Overcast.18 mph86%29.94 "Hg6 mi
10:00 PM25 °FSnow flurries. Overcast.3 mph93%29.97 "Hg3 mi
9:00 PM23 °FSnow flurries. Mostly cloudy.2 mph93%30.00 "Hg2 mi
8:00 PM23 °FSnow showers. Mostly cloudy.No wind93%30.02 "Hg4 mi
7:00 PM23 °FSnow flurries. Mostly cloudy.3 mph86%30.04 "Hg3 mi
6:00 PM23 °FSnow flurries. Mostly cloudy.3 mph86%30.05 "Hg4 mi
Weather by CustomWeather, © 2016

See weather overviewHow to use our weather pages